Change the Weather History Date:

Friday, June 27, 2014

  Actual Average Record
Temperature  
Mean Temperature 73 °F 71 °F  
Max Temperature 85 °F 82 °F 97 °F (1971)
Min Temperature 61 °F 61 °F 48 °F (1955)
Degree Days  
Heating Degree Days 0 0  
Month to date heating degree days 19 47  
Since 1 June heating degree days 19 47  
Since 1 July heating degree days 7067 6415  
Cooling Degree Days 8 7  
Month to date cooling degree days 142 124  
Year to date cooling degree days 196 165  
Since 1 June cooling degree days 142 124  
Growing Degree Days 23 (Base 50)    
Moisture  
Dew Point 63 °F    
Average Humidity 72    
Maximum Humidity 93    
Minimum Humidity 51    
Precipitation  
Precipitation 0.00 in 0.09 in 0.95 in (1999)
Month to date precipitation 3.71 3.31  
Year to date precipitation 12.13 15.75  
Sea Level Pressure  
Sea Level Pressure 30.07 in    
Wind  
Wind Speed 4 mph (SSE)    
Max Wind Speed 12 mph    
Max Gust Speed 16 mph    
Visibility 8 miles    
Events      
T = Trace of Precipitation, MM = Missing Value Source: NWS Daily Summary

Daily Weather History Graph

Daily Weather History Graph

Search for Another Location

Airport or City:

Trip Planner

Search our weather history database for the weather conditions in past years. The results will help you decide how hot, cold, wet, or windy it might be!

Date:

Astronomy

Jun. 27, 2014 Rise Set
Actual Time 6:07 AM EDT 9:22 PM EDT
Civil Twilight 5:33 AM EDT 9:57 PM EDT
Nautical Twilight 4:48 AM EDT 10:41 PM EDT
Astronomical Twilight 3:54 AM EDT 11:36 PM EDT
Moon 6:39 AM EDT (6/27) 9:25 PM EDT (6/27)
Length of Visible Light 16h 24m
Length of Day
15h 14m
New Moon, 0% of the Moon is Illuminated
Jun 27
New Moon
Jul 5
First Quarter
Jul 12
Full
Jul 18
Last Quarter
Jul 26
New

Hourly Weather History & Observations

Time (EDT) Temp. Heat Index Dew Point Humidity Pressure Visibility Wind Dir Wind Speed Gust Speed Precip Events Conditions
12:53 AM 66.0 °F - 62.1 °F 87% 30.06 in 10.0 mi Calm Calm - N/A   Clear
1:53 AM 64.9 °F - 62.1 °F 90% 30.06 in 8.0 mi Calm Calm - N/A   Clear
2:22 AM 63.0 °F - 61.0 °F 93% 30.06 in 1.8 mi Calm Calm - N/A   Clear
2:32 AM 64.0 °F - 62.1 °F 93% 30.06 in 4.0 mi Calm Calm - N/A   Clear
2:53 AM 64.0 °F - 62.1 °F 93% 30.05 in 5.0 mi Calm Calm - N/A   Clear
3:53 AM 64.0 °F - 61.0 °F 90% 30.05 in 9.0 mi Calm Calm - N/A   Clear
4:53 AM 63.0 °F - 60.1 °F 90% 30.06 in 5.0 mi Calm Calm - N/A   Clear
5:53 AM 62.1 °F - 60.1 °F 93% 30.08 in 6.0 mi Calm Calm - N/A   Clear
6:53 AM 63.0 °F - 61.0 °F 93% 30.09 in 7.0 mi Calm Calm - N/A   Clear
7:53 AM 66.9 °F - 63.0 °F 87% 30.08 in 8.0 mi Calm Calm - N/A   Clear
8:53 AM 71.1 °F - 63.0 °F 75% 30.09 in 8.0 mi SSE 5.8 mph - N/A   Clear
9:53 AM 75.0 °F - 64.0 °F 69% 30.09 in 10.0 mi SSE 8.1 mph - N/A   Clear
10:53 AM 78.1 °F - 66.0 °F 66% 30.10 in 10.0 mi Calm Calm - N/A   Clear
11:53 AM 79.0 °F - 66.0 °F 64% 30.09 in 10.0 mi Variable 3.5 mph - N/A   Clear
12:53 PM 82.0 °F 84.1 °F 66.0 °F 58% 30.08 in 10.0 mi SSE 5.8 mph - N/A   Partly Cloudy
1:53 PM 82.9 °F 85.0 °F 66.0 °F 56% 30.08 in 10.0 mi SSE 5.8 mph - N/A   Partly Cloudy
2:53 PM 82.9 °F 84.6 °F 64.9 °F 54% 30.07 in 10.0 mi South 5.8 mph - N/A   Partly Cloudy
3:53 PM 82.9 °F 84.4 °F 64.0 °F 53% 30.06 in 10.0 mi Variable 5.8 mph - N/A   Scattered Clouds
4:53 PM 84.0 °F 85.4 °F 64.0 °F 51% 30.06 in 10.0 mi South 6.9 mph - N/A   Scattered Clouds
5:53 PM 84.0 °F 85.4 °F 64.0 °F 51% 30.05 in 10.0 mi SSE 5.8 mph - N/A   Partly Cloudy
6:53 PM 82.9 °F 84.4 °F 64.0 °F 53% 30.03 in 10.0 mi SE 5.8 mph - N/A   Clear
7:53 PM 82.0 °F 83.4 °F 64.0 °F 54% 30.04 in 10.0 mi SE 5.8 mph - N/A   Clear
8:53 PM 78.1 °F - 64.0 °F 62% 30.04 in 10.0 mi ESE 3.5 mph - N/A   Clear
9:53 PM 75.9 °F - 64.0 °F 67% 30.05 in 10.0 mi SE 3.5 mph - N/A   Clear
10:53 PM 75.0 °F - 64.0 °F 69% 30.06 in 10.0 mi SE 4.6 mph - N/A   Clear
11:53 PM 71.1 °F - 63.0 °F 75% 30.06 in 10.0 mi SE 4.6 mph - N/A   Clear